Location: Waning Moon II Observatory
(30.3730°N, 89.7620°W)
Time: 12:32:43
(UTC-06:00)

Daily predictions for brighter satellites

Satellite Brightness Start Highest point End
(mag) Time Altitude Azimuth Time Altitude Azimuth Time Altitude Azimuth
H-2A ROCKET BODY 4.2 17:34:33 10° WSW 17:40:29 68° SSE 18:15:51 10° E
SEDSat Delta rocket 4.2 17:39:33 10° WSW 17:46:17 67° SSE 17:52:35 10° E
Cosmos 1076 Rocket 3.5 17:44:08 10° S 17:48:29 84° E 17:52:51 10° N
Meteor 2-14 Rocket 4.4 17:43:01 10° N 17:49:08 78° E 17:55:10 10° S
ALOS 2.7 17:54:07 10° SE 17:58:26 39° ENE 18:02:46 10° N
FENGYUN 3A 4.0 17:54:37 10° SE 17:59:36 42° ENE 18:04:37 10° N
ASTRO E2 2.7 17:57:39 10° WSW 18:01:38 79° SSE 18:05:23 11° E
TSX-5 3.9 18:00:40 10° SW 18:03:45 54° WNW 18:06:58 10° NNE
Cosmos 1315 Rocket 2.8 18:03:51 10° S 18:07:48 84° W 18:11:44 10° N
Meteor 1-11 4.4 18:03:01 10° SSE 18:08:23 51° E 18:13:48 10° NNE
Ariane Rocket 4.1 18:04:40 10° S 18:09:32 50° W 18:14:28 10° NNW
Cosmos 1346 Rocket 3.7 18:10:57 10° NNE 18:14:13 25° ENE 18:17:28 10° SE
Cosmos 1726 3.8 18:11:34 10° NNW 18:14:57 36° W 18:18:19 10° SSW
METEOR-M 4.3 18:10:06 10° S 18:15:26 79° WSW 18:20:49 10° NNW
Cosmos 2366 rocket 3.9 18:09:30 10° N 18:15:42 67° E 18:21:48 10° SSE
COSMOS 2406 3.4 18:11:45 10° S 18:17:16 51° ESE 18:22:47 10° NNE
H-2A R/B 3.8 18:15:17 10° SE 18:18:21 24° ENE 18:21:28 10° NNE
Cosmos 1766 Rocket 3.6 18:14:09 10° S 18:18:29 79° W 18:22:48 10° N
Hubble Space Telescope 3.1 18:24:32 10° S 18:25:45 11° SSE 18:26:59 10° SE
SPOT 3 Rocket 3.5 18:20:43 10° SSE 18:25:46 61° ENE 18:30:51 10° N
Nadezhda 3 Rocket 4.2 18:20:56 10° SSE 18:26:58 50° E 18:33:04 10° NNE
CZ-4C R/B 3.3 18:32:24 10° SSE 18:35:49 19° ESE 18:35:51 19° ESE
YAOGAN 1 4.1 18:32:30 10° S 18:36:32 39° W 18:40:36 10° NNW
Cosmos 1455 2.9 18:33:09 10° NNE 18:36:34 30° E 18:39:56 10° SE
USA 81 4.2 18:32:30 10° SSE 18:37:34 50° E 18:42:38 10° NNE
Cosmos 1777 Rocket 4.0 18:34:35 10° N 18:39:46 58° ENE 18:44:56 10° SSE
Cosmos 371 Rocket 3.3 18:35:58 10° S 18:40:40 60° ESE 18:44:15 17° NNE
Cosmos 2208 Rocket 4.2 18:43:32 10° S 18:48:33 49° ESE 18:51:09 27° NE
Cosmos 1151 Rocket 3.4 18:44:54 10° N 18:49:04 41° E 18:53:11 10° SSE
OAO 3 Rocket 3.4 18:48:29 10° WNW 18:53:05 53° N 18:54:22 40° ENE
Cosmos 1626 4.2 18:51:44 10° SW 18:54:58 28° W 18:58:13 10° NNW
Delta 168 4.4 18:49:50 10° WSW 18:56:56 45° S 18:59:12 29° ESE
Cosmos 1703 4.4 18:56:22 10° SSW 19:00:09 44° W 19:03:58 10° N
Cosmos 2058 3.5 18:59:37 10° SSW 19:03:41 56° W 19:07:48 10° N
Cosmos 468 Rocket 4.2 19:02:01 10° S 19:06:39 46° ESE 19:06:39 46° ESE
Cosmos 2098 Rocket 4.2 19:03:56 10° N 19:09:33 73° W 19:16:26 10° S
ERS-2 3.6 19:09:25 10° S 19:12:50 38° W 19:16:18 10° NNW
Cosmos 1515 Rocket 3.6 19:11:48 10° N 19:16:08 77° W 19:20:26 10° S
Cosmos 2151 4.2 19:13:35 10° SSW 19:17:35 40° W 19:21:38 10° N
Cosmos 2239 Rocket 4.3 19:11:29 10° N 19:17:36 68° E 19:23:42 10° SSE
Cosmos 1656 Rocket 4.4 19:14:34 10° NNW 19:19:53 52° WSW 19:25:16 10° S
Cosmos 1570 Rocket 4.4 19:19:13 10° SSW 19:24:27 61° WNW 19:27:14 28° N
NOSS 3-4 (A) 3.9 19:23:58 10° NNW 19:31:14 78° WSW 19:38:57 10° SSE
NOSS 3-4 (C) 3.9 19:24:04 10° NNW 19:31:20 79° WSW 19:39:04 10° SSE
SEDSat Delta rocket 3.7 19:26:23 10° W 19:33:01 82° N 19:33:25 77° NE
Lacrosse 5 2.1 19:28:53 10° SSW 19:33:07 62° SSW 19:33:07 62° SSW
Cosmos 2228 Rocket 4.3 19:30:09 10° NNW 19:34:27 42° W 19:38:46 10° SSW
Cosmos 2082 Rocket 3.9 19:43:42 10° S 19:45:27 20° S 19:45:27 20° S
Hubble Space Telescope 3.8 20:02:43 10° SW 20:03:02 12° SW 20:03:02 12° SW
CZ-4C R/B 4.1 20:19:04 10° SW 20:21:06 23° WSW 20:21:06 23° WSW
